TimeEDT,TemperatureF,Dew PointF,Humidity,Sea Level PressureIn,VisibilityMPH,Wind Direction,Wind SpeedMPH,Gust SpeedMPH,PrecipitationIn,Events,Conditions,WindDirDegrees,DateUTC
12:15 AM,67.5,53.6,61,30.12,10.0,SSW,9.2,-,N/A,,Clear,200,2013-04-10 04:15:00
12:35 AM,67.5,53.8,61,30.12,10.0,SW,3.5,-,N/A,,Clear,220,2013-04-10 04:35:00
12:55 AM,67.1,54.0,63,30.12,10.0,Calm,Calm,-,N/A,,Clear,0,2013-04-10 04:55:00
1:15 AM,66.6,53.8,63,30.12,10.0,SSW,8.1,-,N/A,,Clear,210,2013-04-10 05:15:00
1:35 AM,66.4,54.0,64,30.12,10.0,SSW,5.8,-,N/A,,Clear,210,2013-04-10 05:35:00
1:55 AM,64.0,53.8,69,30.12,10.0,SSW,4.6,-,N/A,,Clear,210,2013-04-10 05:55:00
2:15 AM,63.5,54.0,71,30.11,10.0,Calm,Calm,-,N/A,,Clear,0,2013-04-10 06:15:00
2:35 AM,61.7,53.6,75,30.11,10.0,Calm,Calm,-,N/A,,Clear,0,2013-04-10 06:35:00
2:55 AM,61.5,53.8,76,30.10,10.0,Calm,Calm,-,N/A,,Clear,0,2013-04-10 06:55:00
3:15 AM,62.8,53.8,72,30.10,10.0,Calm,Calm,-,N/A,,Clear,0,2013-04-10 07:15:00
3:35 AM,62.1,53.8,74,30.09,10.0,South,3.5,-,N/A,,Clear,180,2013-04-10 07:35:00
3:55 AM,61.3,53.8,76,30.09,10.0,Calm,Calm,-,N/A,,Clear,0,2013-04-10 07:55:00
4:15 AM,61.3,53.6,76,30.10,10.0,Calm,Calm,-,N/A,,Clear,0,2013-04-10 08:15:00
4:35 AM,61.3,53.8,76,30.09,10.0,Calm,Calm,-,N/A,,Clear,0,2013-04-10 08:35:00
4:55 AM,57.6,53.1,85,30.09,10.0,South,4.6,-,N/A,,Clear,170,2013-04-10 08:55:00
5:15 AM,59.0,53.4,82,30.09,10.0,Calm,Calm,-,N/A,,Clear,0,2013-04-10 09:15:00
5:35 AM,58.3,53.6,84,30.09,10.0,Calm,Calm,-,N/A,,Clear,0,2013-04-10 09:35:00
5:55 AM,56.8,53.2,88,30.10,10.0,Calm,Calm,-,N/A,,Clear,0,2013-04-10 09:55:00
6:15 AM,57.4,53.4,87,30.10,10.0,NE,3.5,-,N/A,,Clear,40,2013-04-10 10:15:00
6:35 AM,57.2,53.2,87,30.10,10.0,Calm,Calm,-,N/A,,Clear,0,2013-04-10 10:35:00
6:55 AM,56.8,53.2,88,30.10,10.0,SE,3.5,-,N/A,,Clear,130,2013-04-10 10:55:00
7:15 AM,52.2,49.6,91,30.11,5.0,Calm,Calm,-,N/A,,Clear,0,2013-04-10 11:15:00
7:35 AM,54.7,52.7,93,30.12,10.0,Calm,Calm,-,N/A,,Clear,0,2013-04-10 11:35:00
7:55 AM,55.6,52.9,91,30.12,10.0,Calm,Calm,-,N/A,,Clear,0,2013-04-10 11:55:00
8:15 AM,58.1,54.5,88,30.12,10.0,Calm,Calm,-,N/A,,Clear,0,2013-04-10 12:15:00
8:35 AM,60.3,55.0,83,30.12,10.0,Calm,Calm,-,N/A,,Clear,0,2013-04-10 12:35:00
8:55 AM,61.2,55.2,81,30.12,10.0,Calm,Calm,-,N/A,,Clear,0,2013-04-10 12:55:00
9:15 AM,63.0,55.4,76,30.13,10.0,Calm,Calm,-,N/A,,Clear,0,2013-04-10 13:15:00
9:35 AM,64.9,55.8,72,30.13,10.0,South,3.5,-,N/A,,Clear,170,2013-04-10 13:35:00
9:55 AM,66.9,56.3,69,30.12,10.0,Calm,Calm,-,N/A,,Clear,0,2013-04-10 13:55:00
10:15 AM,68.9,56.8,65,30.13,10.0,SE,3.5,-,N/A,,Clear,140,2013-04-10 14:15:00
10:35 AM,71.8,57.6,61,30.12,10.0,South,8.1,-,N/A,,Clear,190,2013-04-10 14:35:00
10:55 AM,73.6,57.4,57,30.12,10.0,South,11.5,-,N/A,,Clear,190,2013-04-10 14:55:00
11:15 AM,76.3,57.7,53,30.12,10.0,SSW,10.4,-,N/A,,Clear,200,2013-04-10 15:15:00
11:35 AM,77.2,57.4,50,30.12,10.0,SSW,12.7,20.7,N/A,,Clear,200,2013-04-10 15:35:00
11:55 AM,78.4,57.0,48,30.12,10.0,SSW,12.7,20.7,N/A,,Clear,210,2013-04-10 15:55:00
12:15 PM,78.4,56.8,47,30.12,10.0,SSW,13.8,21.9,N/A,,Clear,200,2013-04-10 16:15:00
12:35 PM,79.9,57.6,46,30.12,10.0,South,16.1,24.2,N/A,,Clear,180,2013-04-10 16:35:00
1:15 PM,81.3,57.0,43,30.10,10.0,SSW,16.1,21.9,N/A,,Clear,200,2013-04-10 17:15:00
1:35 PM,81.1,56.7,43,30.09,10.0,South,10.4,21.9,N/A,,Clear,190,2013-04-10 17:35:00
1:55 PM,81.3,56.3,42,30.08,10.0,SSW,11.5,21.9,N/A,,Clear,210,2013-04-10 17:55:00
2:15 PM,82.2,56.7,41,30.08,10.0,South,11.5,21.9,N/A,,Clear,180,2013-04-10 18:15:00
2:35 PM,82.6,56.3,40,30.07,10.0,SSW,11.5,26.5,N/A,,Clear,210,2013-04-10 18:35:00
2:55 PM,82.6,55.8,40,30.06,10.0,SSW,12.7,24.2,N/A,,Clear,200,2013-04-10 18:55:00
3:15 PM,83.3,55.4,38,30.06,10.0,SSW,5.8,23.0,N/A,,Clear,200,2013-04-10 19:15:00
3:35 PM,83.1,55.4,38,30.05,10.0,South,6.9,25.3,N/A,,Clear,170,2013-04-10 19:35:00
3:55 PM,83.5,55.0,38,30.04,10.0,South,9.2,24.2,N/A,,Clear,190,2013-04-10 19:55:00
4:15 PM,84.0,55.2,37,30.03,10.0,SSW,9.2,18.4,N/A,,Clear,200,2013-04-10 20:15:00
4:35 PM,83.7,55.6,38,30.02,10.0,South,16.1,24.2,N/A,,Clear,170,2013-04-10 20:35:00
4:55 PM,84.0,55.0,37,30.01,10.0,SSW,6.9,17.3,N/A,,Clear,200,2013-04-10 20:55:00
5:15 PM,82.8,52.5,35,30.01,10.0,SSW,11.5,21.9,N/A,,Clear,200,2013-04-10 21:15:00
5:35 PM,82.8,54.3,37,30.00,10.0,South,8.1,20.7,N/A,,Clear,180,2013-04-10 21:35:00
5:55 PM,82.2,54.3,38,30.00,10.0,SSW,16.1,23.0,N/A,,Clear,200,2013-04-10 21:55:00
6:15 PM,81.5,53.8,38,30.00,10.0,SSW,15.0,23.0,N/A,,Clear,200,2013-04-10 22:15:00
6:35 PM,81.0,54.5,40,29.99,10.0,SW,11.5,20.7,N/A,,Clear,220,2013-04-10 22:35:00
6:55 PM,80.4,54.1,40,29.99,10.0,SW,6.9,21.9,N/A,,Clear,220,2013-04-10 22:55:00
7:15 PM,79.3,54.5,42,29.98,10.0,South,10.4,21.9,N/A,,Clear,190,2013-04-10 23:15:00
7:35 PM,78.8,54.7,43,29.98,10.0,South,5.8,21.9,N/A,,Clear,190,2013-04-10 23:35:00
7:55 PM,77.4,55.0,46,29.98,10.0,SSW,6.9,19.6,N/A,,Clear,200,2013-04-10 23:55:00
8:15 PM,76.5,54.9,47,29.98,10.0,South,5.8,-,N/A,,Clear,190,2013-04-11 00:15:00
8:35 PM,75.6,54.5,48,29.98,10.0,South,5.8,-,N/A,,Clear,190,2013-04-11 00:35:00
8:55 PM,74.5,54.3,49,29.98,10.0,South,5.8,-,N/A,,Clear,190,2013-04-11 00:55:00
9:15 PM,73.6,54.5,51,29.98,10.0,South,4.6,-,N/A,,Clear,190,2013-04-11 01:15:00
9:35 PM,72.9,54.5,52,29.98,10.0,Calm,Calm,-,N/A,,Clear,0,2013-04-11 01:35:00
9:55 PM,71.8,54.5,54,29.98,10.0,South,6.9,-,N/A,,Clear,190,2013-04-11 01:55:00
10:15 PM,70.0,54.5,58,29.98,10.0,South,4.6,-,N/A,,Clear,180,2013-04-11 02:15:00
10:35 PM,71.1,54.1,55,29.98,10.0,South,3.5,-,N/A,,Clear,170,2013-04-11 02:35:00
10:55 PM,71.1,53.8,54,29.97,10.0,SSE,4.6,-,N/A,,Clear,160,2013-04-11 02:55:00
11:15 PM,70.3,54.0,56,29.98,10.0,SSW,3.5,-,N/A,,Clear,210,2013-04-11 03:15:00
11:35 PM,70.3,53.8,56,29.97,10.0,South,3.5,-,N/A,,Clear,180,2013-04-11 03:35:00
11:55 PM,68.0,54.3,62,29.98,10.0,SSW,10.4,-,N/A,,Clear,210,2013-04-11 03:55:00